[[{"header":{"parameterUnit":"m.s-1","parameterCategory":1,"la1":30.2991,"la2":30.254,"lo1":-89.0895,"lo2":-89.0444,"dy":0.0017,"dx":0.0017,"nx":28,"ny":28,"refTime":"2024-04-03T03:00:00:Z","depth":0,"parameterNumber":2,"parameterNumberName":"U-component_of_WINDS"},"data":[0,0,0,0,0,0,0,0,0,0,0,0,0,0,0,0,0,0,0,0,0,0,0,0,0,0,0,0,0,0,0,0,0,0,0,0,0,0,0,0,0,0,0,0,0,0,0,0,0,0,0,0,0,0,0,0,0,0,2.8237,2.8238,0,2.8351,2.8352,2.8353,2.8311,2.8309,2.8306,2.8304,2.8423,2.8428,2.8434,0,0,0,0,0,0,0,0,0,0,0,0,0,2.7987,2.7992,2.8237,2.8238,2.824,2.835,2.8352,2.8354,2.8312,2.8308,2.8305,2.8302,2.8421,2.8428,2.8434,0,0,0,0,0,0,0,0,0,0,0,0,0,2.8098,2.7994,2.8237,2.8232,2.8233,2.835,2.8352,2.8354,2.8312,2.8308,2.8305,2.8301,2.8419,2.8427,2.8435,2.8565,0,0,2.8461,2.8465,0,0,0,0,0,0,0,0,2.8092,2.8107,2.8231,2.8233,2.8234,2.8313,2.8308,2.8425,2.8313,2.8282,2.8303,2.8299,2.839,2.84,2.843,2.857,2.8575,2.8462,2.8467,2.847,2.8473,0,0,0,0,0,0,0,2.8084,2.8102,2.8282,2.8233,2.8235,2.8226,2.8237,2.833,2.8356,2.8285,2.8282,2.8296,2.8389,2.8422,2.8433,2.8577,2.8461,2.8469,2.8474,2.8477,2.8832,2.8836,0,0,0,0,0,0,2.8076,2.8096,2.8278,2.8285,2.8152,2.8233,2.8246,2.8291,2.8355,2.8361,2.8299,2.8293,2.841,2.8423,2.8437,2.8594,2.847,2.8478,2.8483,2.8828,2.8833,2.8838,0,0,0,0,0,0,2.807,2.8092,2.8274,2.819,2.8212,2.8242,2.8293,2.8296,2.8328,2.8366,2.8371,2.8327,2.8407,2.8425,2.8534,2.8597,2.8482,2.849,2.8823,2.8829,2.8835,2.8909,0,0,0,0,0,0,2.8063,2.8091,2.8139,2.8191,2.8217,2.8368,2.8297,2.8301,2.8342,2.8336,2.8394,2.84,2.8405,2.8521,2.8542,2.8607,2.8496,2.8817,2.8826,2.8833,2.8901,2.8917,2.8931,0,0,0,0,0,2.8055,2.8155,2.8142,2.8164,2.8278,2.8371,2.8386,2.839,2.8347,2.8397,2.8422,2.8398,2.8587,2.8533,2.8556,2.8624,2.8813,2.8823,2.8833,2.8894,2.8914,2.893,0,0,0,0,0,0,2.811,2.8162,2.8147,2.8268,2.8315,2.8364,2.8427,2.8411,2.8472,2.8464,2.8467,2.848,2.8593,2.8619,2.8558,2.8754,2.8694,2.8709,2.8732,2.8752,2.8766,2.8758,2.8503,0,0,0,0,0,2.8136,2.8206,2.8248,2.8351,2.8375,2.8397,2.8438,2.8437,2.8487,2.8507,2.854,2.859,2.8661,2.8708,2.8775,2.8904,2.8917,2.8963,2.8978,2.899,2.9003,2.9076,2.9097,2.887,2.887,2.887,0,0,2.8191,2.8228,2.8272,2.8363,2.8399,2.8474,2.8414,2.8495,2.8551,2.852,2.8624,2.865,2.8707,2.8827,2.8882,2.8853,2.9069,2.9003,2.9012,2.9019,2.9088,2.9109,2.9128,2.8877,2.8876,2.8875,0,0,2.8329,2.8363,2.8453,2.8491,2.8548,2.8562,2.8584,2.8636,2.8651,2.8757,2.8735,2.8802,2.8924,2.8966,2.9003,2.9159,2.914,2.9181,2.926,2.9331,2.9349,2.9365,2.9422,2.9442,2.9194,2.9194,2.9194,0,2.839,2.85,2.8501,2.8584,2.8626,2.8601,2.8693,2.873,2.8806,2.8836,2.8802,2.8956,2.8992,2.9123,2.9161,2.9191,2.9218,2.9175,2.9346,2.9362,2.9377,2.9431,2.9453,2.9199,2.9199,2.9198,2.9198,0,2.8573,2.865,2.8716,2.879,2.8839,2.8926,2.8942,2.8991,2.8987,2.9005,2.9114,2.9157,2.9233,2.9264,2.926,2.9395,2.9375,2.9344,2.9284,2.9403,2.9454,2.9475,2.9206,2.9204,2.9203,2.9202,0,0,2.8748,2.8823,2.8847,2.8881,2.8943,2.9003,2.909,2.9164,2.9207,2.9261,2.9335,2.944,2.9412,2.9454,2.9455,2.9517,2.964,2.9478,2.948,2.9508,2.9794,2.9817,2.9842,2.9628,2.9632,2.9635,2.9789,0,2.8892,2.9043,2.9048,2.9187,2.926,2.9238,2.9314,2.9361,2.9381,2.9447,2.9469,2.9544,2.95,2.9526,2.9586,2.9612,2.9698,2.9601,2.9699,2.9702,2.9686,2.9868,2.9893,3.0037,2.9809,2.9813,2.9815,0,2.908,2.9139,2.9286,2.9338,2.9369,2.9437,2.9507,2.9569,2.9623,2.9633,2.9681,2.9674,2.9765,2.9702,2.9828,2.9762,2.9803,2.9822,2.9828,2.9838,2.9766,2.9884,3.0082,3.0104,2.9847,2.9844,2.9842,0,2.9194,2.9311,2.9414,2.9444,2.9508,2.9557,2.9586,2.9636,2.9681,2.9742,2.9772,2.9843,2.9882,2.9939,2.9951,2.9904,3.0079,3.0016,3.0092,3.0091,3.0129,3.0127,3.0338,3.0154,3.0154,3.0154,3.0153,0,2.9355,2.9445,2.9467,2.9531,2.9632,2.9638,2.9739,2.9765,2.981,2.9879,2.9865,2.9931,2.9943,3.0013,3.0023,3.0128,3.0145,3.0158,3.0159,3.0159,3.0158,3.0186,3.0177,3.0159,3.0158,3.0157,3.0156,0,2.95,2.9518,2.9629,2.9681,2.9696,2.9769,2.9814,2.9876,2.9894,2.9983,3.0004,3.0034,3.0115,3.0133,3.0229,3.0237,3.0361,3.0353,3.0343,3.0342,3.0417,3.041,3.0654,3.0687,3.0481,3.0483,3.0485,0,2.9601,2.9671,2.973,2.9775,2.9806,2.9879,2.9925,2.9934,2.9983,3.0051,3.0105,3.0184,3.0248,3.0378,3.041,3.0484,3.0478,3.0559,3.0489,3.0488,3.0481,3.0477,3.0485,3.0572,3.0574,3.0576,3.0578,0,2.978,2.9786,2.9852,2.9922,2.9977,3.0033,3.0086,3.0125,3.0141,3.0197,3.0279,3.0329,3.0427,3.0507,3.0582,3.0613,3.06,3.0599,3.0621,3.0622,3.0613,3.062,3.038,3.0594,3.0592,3.0591,3.059,3.0589,2.9907,2.9969,3.002,3.0095,3.0136,3.0187,3.0248,3.0275,3.0343,3.0423,3.0425,3.0515,3.0569,3.0668,3.0705,3.0776,3.0752,3.0783,3.0791,3.0798,3.0806,3.0601,3.079,3.079,3.0789,3.0789,3.0789,0,3.0086,3.0119,3.0187,3.0262,3.0322,3.0303,3.0361,3.0413,3.0492,3.0543,3.0606,3.0702,3.078,3.0818,3.0895,3.0946,3.0941,3.0966,3.0962,3.097,3.0823,3.0797,3.0968,3.0968,3.0968,3.0968,3.0968,3.0968,3.0186,3.0289,3.0302,3.0426,3.0458,3.0546,3.0581,3.0629,3.067,3.0777,3.0841,3.0865,3.0912,3.0993,3.1064,3.1073,3.1103,3.1131,3.1137,3.0999,3.098,3.0963,3.0939,3.1137,3.1137,3.1279,3.128,3.1281]},{"header":{"parameterUnit":"m.s-1","parameterCategory":1,"la1":30.2991,"la2":30.254,"lo1":-89.0895,"lo2":-89.0444,"dy":0.0017,"dx":0.0017,"nx":28,"ny":28,"refTime":"2024-04-03T03:00:00:Z","depth":0,"parameterNumber":3,"parameterNumberName":"V-component_of_WINDS"},"data":[0,0,0,0,0,0,0,0,0,0,0,0,0,0,0,0,0,0,0,0,0,0,0,0,0,0,0,0,0,0,0,0,0,0,0,0,0,0,0,0,0,0,0,0,0,0,0,0,0,0,0,0,0,0,0,0,0,0,-0.638,-0.6381,0,-0.6492,-0.6493,-0.6494,-0.655,-0.655,-0.655,-0.655,-0.6667,-0.667,-0.6673,0,0,0,0,0,0,0,0,0,0,0,0,0,-0.6218,-0.622,-0.638,-0.6382,-0.6383,-0.6492,-0.6493,-0.6495,-0.655,-0.655,-0.655,-0.655,-0.6666,-0.6669,-0.6673,0,0,0,0,0,0,0,0,0,0,0,0,0,-0.6305,-0.6221,-0.638,-0.6424,-0.6429,-0.6491,-0.6493,-0.6495,-0.655,-0.655,-0.655,-0.655,-0.6664,-0.6669,-0.6673,-0.6701,0,0,-0.6687,-0.6689,0,0,0,0,0,0,0,0,-0.63,-0.6311,-0.6416,-0.6421,-0.6427,-0.6507,-0.6479,-0.6564,-0.655,-0.6504,-0.655,-0.655,-0.6614,-0.6622,-0.6643,-0.6707,-0.6712,-0.6688,-0.6691,-0.6693,-0.6694,0,0,0,0,0,0,0,-0.6294,-0.6306,-0.6424,-0.6417,-0.6424,-0.6439,-0.6451,-0.6495,-0.6557,-0.6508,-0.6512,-0.6525,-0.6617,-0.6639,-0.6646,-0.6713,-0.6688,-0.6692,-0.6695,-0.6696,-0.6807,-0.6807,0,0,0,0,0,0,-0.628,-0.6301,-0.6421,-0.6428,-0.6362,-0.6441,-0.6455,-0.6481,-0.6557,-0.6569,-0.6525,-0.6527,-0.6631,-0.6641,-0.6651,-0.6689,-0.6693,-0.6697,-0.67,-0.6806,-0.6807,-0.6807,0,0,0,0,0,0,-0.6276,-0.629,-0.6416,-0.6365,-0.6383,-0.6444,-0.6473,-0.6483,-0.6506,-0.657,-0.6581,-0.6536,-0.6631,-0.6644,-0.6688,-0.6694,-0.6699,-0.6703,-0.6806,-0.6806,-0.6807,-0.6765,0,0,0,0,0,0,-0.6272,-0.6289,-0.6299,-0.6365,-0.6385,-0.6451,-0.6473,-0.6486,-0.6513,-0.6517,-0.6583,-0.6594,-0.6632,-0.6681,-0.6693,-0.67,-0.6707,-0.6806,-0.6806,-0.6807,-0.6767,-0.6764,-0.6762,0,0,0,0,0,-0.6266,-0.6283,-0.6299,-0.6314,-0.64,-0.6451,-0.6463,-0.6506,-0.6513,-0.6525,-0.6566,-0.6592,-0.6691,-0.6685,-0.6699,-0.6708,-0.6806,-0.6806,-0.6807,-0.6768,-0.6765,-0.6762,0,0,0,0,0,0,-0.6217,-0.6293,-0.6312,-0.6351,-0.6394,-0.6461,-0.6477,-0.6501,-0.6544,-0.6546,-0.6599,-0.6613,-0.6652,-0.6685,-0.6677,-0.6739,-0.6751,-0.6754,-0.6717,-0.6715,-0.6712,-0.6704,-0.6711,0,0,0,0,0,-0.6211,-0.6246,-0.6311,-0.6339,-0.636,-0.6414,-0.6439,-0.6468,-0.6515,-0.6534,-0.6578,-0.6624,-0.6666,-0.6692,-0.6734,-0.6771,-0.6787,-0.6784,-0.6782,-0.678,-0.6782,-0.6806,-0.6805,-0.6808,-0.6808,-0.6808,0,0,-0.6199,-0.6245,-0.6264,-0.6331,-0.6368,-0.6404,-0.6429,-0.6466,-0.6494,-0.654,-0.6584,-0.6618,-0.6673,-0.6714,-0.6734,-0.6742,-0.6785,-0.6781,-0.6778,-0.6782,-0.6806,-0.6806,-0.6805,-0.6808,-0.6808,-0.6808,0,0,-0.6195,-0.6233,-0.6261,-0.6298,-0.6353,-0.6389,-0.6396,-0.6459,-0.6483,-0.6528,-0.6564,-0.6598,-0.6668,-0.6705,-0.6734,-0.6744,-0.677,-0.6757,-0.6745,-0.6767,-0.6767,-0.6767,-0.6772,-0.6773,-0.6758,-0.6758,-0.6758,0,-0.6173,-0.6228,-0.6273,-0.6308,-0.6337,-0.6379,-0.6409,-0.6443,-0.6509,-0.6528,-0.6536,-0.6625,-0.6665,-0.6716,-0.6718,-0.674,-0.675,-0.6749,-0.6763,-0.6764,-0.6765,-0.677,-0.6771,-0.6756,-0.6757,-0.6757,-0.6757,0,-0.6198,-0.6236,-0.6252,-0.6315,-0.6346,-0.6378,-0.6428,-0.6454,-0.6481,-0.6517,-0.6563,-0.6612,-0.6664,-0.6679,-0.6706,-0.6734,-0.6737,-0.6753,-0.6766,-0.6762,-0.6767,-0.6769,-0.6754,-0.6754,-0.6755,-0.6755,0,0,-0.6167,-0.6254,-0.6259,-0.6288,-0.6353,-0.6383,-0.6418,-0.6469,-0.649,-0.6535,-0.6566,-0.6624,-0.664,-0.6672,-0.6703,-0.6723,-0.6729,-0.6737,-0.6739,-0.6734,-0.6764,-0.6752,-0.6753,-0.6746,-0.6747,-0.6747,-0.676,0,-0.6173,-0.6235,-0.6277,-0.6324,-0.636,-0.6401,-0.6431,-0.6475,-0.6509,-0.6545,-0.6583,-0.6624,-0.6641,-0.6661,-0.6682,-0.6724,-0.6736,-0.6723,-0.6776,-0.6778,-0.6762,-0.6756,-0.6743,-0.6752,-0.6762,-0.6763,-0.6763,0,-0.6187,-0.623,-0.628,-0.6341,-0.6358,-0.6384,-0.6434,-0.6468,-0.6518,-0.6542,-0.6578,-0.661,-0.6649,-0.6658,-0.6714,-0.6704,-0.6729,-0.6752,-0.6754,-0.6761,-0.677,-0.6763,-0.6756,-0.6758,-0.6767,-0.6766,-0.6766,0,-0.616,-0.623,-0.6269,-0.6293,-0.6365,-0.6383,-0.6414,-0.6464,-0.6492,-0.6537,-0.6556,-0.6604,-0.6631,-0.6668,-0.6713,-0.6716,-0.6764,-0.6777,-0.6786,-0.6785,-0.6794,-0.6793,-0.6792,-0.6809,-0.6809,-0.6809,-0.6809,0,-0.6162,-0.6191,-0.6258,-0.6282,-0.6316,-0.6364,-0.6397,-0.6432,-0.6476,-0.6509,-0.6548,-0.6578,-0.6635,-0.6672,-0.6707,-0.6748,-0.676,-0.6781,-0.679,-0.6778,-0.6775,-0.6794,-0.6795,-0.6809,-0.6809,-0.6809,-0.6809,0,-0.6137,-0.6183,-0.6229,-0.6293,-0.631,-0.6332,-0.6388,-0.6414,-0.645,-0.6491,-0.6503,-0.656,-0.6606,-0.6655,-0.6717,-0.6741,-0.678,-0.6793,-0.6763,-0.6768,-0.6774,-0.6773,-0.6786,-0.679,-0.6803,-0.6803,-0.6803,0,-0.6135,-0.6159,-0.6226,-0.625,-0.6279,-0.6318,-0.6347,-0.6395,-0.6424,-0.6483,-0.6502,-0.655,-0.6592,-0.6663,-0.6711,-0.6759,-0.6774,-0.6775,-0.6781,-0.6768,-0.6775,-0.6773,-0.6776,-0.6773,-0.6772,-0.6772,-0.6772,0,-0.6128,-0.6149,-0.6189,-0.6237,-0.627,-0.631,-0.6352,-0.637,-0.6427,-0.6457,-0.6504,-0.6536,-0.6599,-0.6648,-0.6701,-0.6735,-0.6763,-0.6769,-0.6774,-0.6762,-0.6743,-0.6754,-0.6757,-0.6769,-0.6769,-0.6769,-0.6769,-0.677,-0.6115,-0.6138,-0.6188,-0.6231,-0.6268,-0.6306,-0.6333,-0.6373,-0.6413,-0.6468,-0.6494,-0.6541,-0.6592,-0.6668,-0.67,-0.6739,-0.6747,-0.6753,-0.6755,-0.6756,-0.6753,-0.6737,-0.6749,-0.6749,-0.6749,-0.6749,-0.6749,0,-0.611,-0.6144,-0.6183,-0.624,-0.6274,-0.6297,-0.6345,-0.6372,-0.6413,-0.6457,-0.6497,-0.6552,-0.6599,-0.665,-0.6701,-0.6721,-0.6736,-0.6733,-0.6732,-0.674,-0.6743,-0.6734,-0.6721,-0.6721,-0.6721,-0.6721,-0.6721,-0.6721,-0.6111,-0.6151,-0.6178,-0.6237,-0.6272,-0.6318,-0.6343,-0.6379,-0.6415,-0.6474,-0.6512,-0.6546,-0.6594,-0.6648,-0.6693,-0.6707,-0.6724,-0.6717,-0.6735,-0.6737,-0.6739,-0.6742,-0.6733,-0.6721,-0.6721,-0.673,-0.673,-0.673]}]]